Location: Dresden
(51.0483°N, 13.7137°E)
Time: 21:14:49
(UTC+01:00)

ISS - Pass Details

Date: 14 November 2017
Orbit: 402 x 407 km, 51.6° (Epoch: 24 November)

Event Time Altitude Azimuth Distance (km) Brightness Sun altitude
Exits shadow 05:45:14 26° 243° (WSW) 831 -2.7 -14.8°
Maximum altitude 05:46:08 31° 211° (SSW) 734 -2.7 -14.6°
Drops below altitude 10° 05:49:03 10° 147° (SSE) 1,451 -0.4 -14.2°
Sets 05:51:15 0° 136° (SE) 2,307 1.0 -13.9°
